When you browse on this site, cookies collect data to enhance your experience and personalize the content and advertising you see.
Visit our Privacy Policy to learn more. By continuing to use the site, you agree to this use of cookies and data.
  • In Hungary
  • List of Countries
  • For 7 days
  • Water Temperature
  • Satellite Maps
  • Weather Map
  • News
  • Weather Widgets
  • user-avatar
    Login

    Hourly Weather Arvika

    Today, 17 June, Monday

    Time Temperature Precipitation Wind Pressure Humidity
    00:00 +13°C° 0 mm 2 mps 756 mmHg 89%
    01:00 +11°C° 0 mm 3 mps 756 mmHg 94%
    02:00 +11°C° 0 mm 3 mps 756 mmHg 91%
    03:00 +11°C° 0 mm 3 mps 756 mmHg 89%
    04:00 +11°C° 0 mm 3 mps 755 mmHg 86%
    05:00 +13°C° 0 mm 3 mps 755 mmHg 74%
    06:00 +14°C° 0 mm 4 mps 755 mmHg 62%
    07:00 +16°C° 0 mm 5 mps 755 mmHg 50%
    08:00 +17°C° 0 mm 5 mps 755 mmHg 47%
    09:00 +19°C° 0 mm 5 mps 756 mmHg 43%
    10:00 +20°C° 0 mm 6 mps 756 mmHg 40%
    11:00 +21°C° 0 mm 6 mps 756 mmHg 41%
    12:00 +21°C° 0 mm 6 mps 756 mmHg 42%
    13:00 +22°C° 0 mm 6 mps 755 mmHg 44%
    14:00 +22°C° 0 mm 6 mps 755 mmHg 47%
    15:00 +21°C° 0 mm 6 mps 755 mmHg 50%
    16:00 +21°C° 0 mm 6 mps 755 mmHg 53%
    17:00 +20°C° 0 mm 6 mps 755 mmHg 55%
    18:00 +20°C° 0 mm 5 mps 755 mmHg 58%
    19:00 +19°C° 0 mm 5 mps 755 mmHg 60%
    20:00 +16°C° 0 mm 5 mps 756 mmHg 68%
    21:00 +14°C° 0 mm 4 mps 756 mmHg 76%
    22:00 +13°C° 0 mm 4 mps 756 mmHg 84%
    23:00 +12°C° 0 mm 4 mps 756 mmHg 85%

    Tomorrow, 18 June, Tuesday

    Time Temperature Precipitation Wind Pressure Humidity
    00:00 +12°C° 0 mm 4 mps 756 mmHg 86%
    01:00 +12°C° 0 mm 4 mps 756 mmHg 88%
    02:00 +12°C° 0 mm 4 mps 756 mmHg 89%
    03:00 +12°C° 0 mm 4 mps 756 mmHg 89%
    04:00 +12°C° 0 mm 3 mps 756 mmHg 90%
    05:00 +14°C° 0 mm 4 mps 756 mmHg 86%
    06:00 +15°C° 0 mm 4 mps 756 mmHg 81%
    07:00 +17°C° 0 mm 4 mps 756 mmHg 76%
    08:00 +17°C° 0.4 mm 4 mps 756 mmHg 81%
    09:00 +17°C° 0.4 mm 4 mps 756 mmHg 85%
    10:00 +17°C° 0.4 mm 3 mps 756 mmHg 90%
    11:00 +18°C° 0.4 mm 4 mps 755 mmHg 85%
    12:00 +19°C° 0.4 mm 4 mps 755 mmHg 79%
    13:00 +20°C° 0.4 mm 4 mps 755 mmHg 74%
    14:00 +21°C° 0.1 mm 5 mps 754 mmHg 67%
    15:00 +22°C° 0.1 mm 5 mps 754 mmHg 59%
    16:00 +22°C° 0.1 mm 5 mps 754 mmHg 52%
    17:00 +22°C° 0 mm 4 mps 753 mmHg 56%
    18:00 +21°C° 0 mm 4 mps 753 mmHg 59%
    19:00 +20°C° 0 mm 3 mps 753 mmHg 63%
    20:00 +18°C° 0 mm 3 mps 753 mmHg 69%
    21:00 +16°C° 0 mm 3 mps 753 mmHg 75%
    22:00 +15°C° 0 mm 2 mps 753 mmHg 80%
    23:00 +14°C° 0 mm 2 mps 753 mmHg 85%

    Day after tomorrow, 19 June, Wednesday

    Time Temperature Precipitation Wind Pressure Humidity
    00:00 +13°C° 0 mm 2 mps 753 mmHg 90%
    01:00 +12°C° 0 mm 2 mps 753 mmHg 95%
    02:00 +12°C° 0 mm 2 mps 753 mmHg 95%
    03:00 +12°C° 0 mm 2 mps 753 mmHg 96%
    04:00 +12°C° 0 mm 1 mps 753 mmHg 96%
    05:00 +14°C° 0 mm 2 mps 753 mmHg 88%
    06:00 +15°C° 0 mm 2 mps 753 mmHg 79%
    07:00 +17°C° 0 mm 2 mps 752 mmHg 70%
    08:00 +19°C° 0 mm 2 mps 753 mmHg 63%
    09:00 +20°C° 0 mm 2 mps 753 mmHg 55%
    10:00 +22°C° 0 mm 3 mps 753 mmHg 47%
    11:00 +24°C° 0 mm 3 mps 752 mmHg 44%
    12:00 +25°C° 0 mm 3 mps 752 mmHg 41%
    13:00 +26°C° 0 mm 3 mps 752 mmHg 38%
    14:00 +26°C° 0 mm 3 mps 751 mmHg 39%
    15:00 +26°C° 0 mm 3 mps 751 mmHg 40%
    16:00 +26°C° 0 mm 3 mps 751 mmHg 41%
    17:00 +25°C° 0 mm 2 mps 750 mmHg 48%
    18:00 +24°C° 0 mm 2 mps 750 mmHg 56%
    19:00 +24°C° 0 mm 2 mps 750 mmHg 63%
    20:00 +21°C° 0 mm 1 mps 750 mmHg 73%
    21:00 +19°C° 0 mm 1 mps 750 mmHg 83%
    22:00 +16°C° 0 mm 1 mps 750 mmHg 93%
    23:00 +16°C° 0 mm 1 mps 750 mmHg 94%

    20 June, Thursday

    Time Temperature Precipitation Wind Pressure Humidity
    00:00 +16°C° 0 mm 1 mps 750 mmHg 95%
    01:00 +15°C° 0 mm 1 mps 749 mmHg 96%
    02:00 +15°C° 0.4 mm 1 mps 749 mmHg 96%
    03:00 +15°C° 0.4 mm 1 mps 749 mmHg 97%
    04:00 +16°C° 0.4 mm 1 mps 749 mmHg 97%
    05:00 +16°C° 0.2 mm 2 mps 748 mmHg 97%
    06:00 +17°C° 0.2 mm 3 mps 748 mmHg 96%
    07:00 +18°C° 0.2 mm 3 mps 747 mmHg 96%
    08:00 +18°C° 0.4 mm 3 mps 747 mmHg 96%
    09:00 +18°C° 0.4 mm 3 mps 747 mmHg 97%
    10:00 +18°C° 0.4 mm 3 mps 747 mmHg 97%
    11:00 +18°C° 0.4 mm 3 mps 746 mmHg 96%
    12:00 +18°C° 0.4 mm 4 mps 746 mmHg 95%
    13:00 +18°C° 0.4 mm 4 mps 746 mmHg 94%
    14:00 +17°C° 0.2 mm 5 mps 746 mmHg 90%
    15:00 +16°C° 0.2 mm 5 mps 746 mmHg 86%
    16:00 +15°C° 0.2 mm 5 mps 747 mmHg 82%
    17:00 +16°C° 0 mm 5 mps 747 mmHg 76%
    18:00 +16°C° 0 mm 6 mps 747 mmHg 71%
    19:00 +17°C° 0 mm 6 mps 747 mmHg 66%
    20:00 +16°C° 0 mm 6 mps 748 mmHg 68%
    21:00 +15°C° 0 mm 5 mps 748 mmHg 70%
    22:00 +14°C° 0 mm 5 mps 749 mmHg 72%
    23:00 +14°C° 0 mm 5 mps 749 mmHg 73%

    21 June, Friday

    Time Temperature Precipitation Wind Pressure Humidity
    00:00 +13°C° 0 mm 5 mps 749 mmHg 74%
    01:00 +13°C° 0 mm 5 mps 750 mmHg 74%
    02:00 +12°C° 0 mm 5 mps 750 mmHg 73%
    03:00 +12°C° 0 mm 5 mps 751 mmHg 72%
    04:00 +12°C° 0 mm 5 mps 751 mmHg 71%
    05:00 +13°C° 0 mm 5 mps 751 mmHg 65%
    06:00 +14°C° 0 mm 5 mps 752 mmHg 60%
    07:00 +15°C° 0 mm 6 mps 752 mmHg 54%
    08:00 +16°C° 0 mm 6 mps 752 mmHg 51%
    09:00 +17°C° 0 mm 6 mps 752 mmHg 48%
    10:00 +19°C° 0 mm 6 mps 753 mmHg 45%
    11:00 +20°C° 0 mm 6 mps 753 mmHg 44%
    12:00 +20°C° 0 mm 6 mps 753 mmHg 43%
    13:00 +21°C° 0 mm 5 mps 753 mmHg 42%
    14:00 +21°C° 0 mm 5 mps 753 mmHg 43%
    15:00 +21°C° 0 mm 5 mps 753 mmHg 44%
    16:00 +21°C° 0 mm 5 mps 753 mmHg 45%
    17:00 +20°C° 0 mm 4 mps 753 mmHg 49%
    18:00 +19°C° 0 mm 4 mps 753 mmHg 53%
    19:00 +18°C° 0 mm 4 mps 752 mmHg 56%
    20:00 +17°C° 0 mm 3 mps 753 mmHg 64%
    21:00 +14°C° 0 mm 3 mps 753 mmHg 72%
    22:00 +13°C° 0 mm 2 mps 753 mmHg 80%
    23:00 +13°C° 0 mm 2 mps 753 mmHg 85%

    22 June, Saturday

    Time Temperature Precipitation Wind Pressure Humidity
    00:00 +12°C° 0 mm 2 mps 753 mmHg 90%
    01:00 +10°C° 0 mm 2 mps 753 mmHg 96%
    02:00 +10°C° 0 mm 2 mps 753 mmHg 94%
    03:00 +10°C° 0 mm 3 mps 753 mmHg 93%
    04:00 +10°C° 0 mm 3 mps 753 mmHg 92%
    05:00 +12°C° 0 mm 3 mps 753 mmHg 80%
    06:00 +13°C° 0 mm 4 mps 753 mmHg 68%
    07:00 +15°C° 0 mm 5 mps 753 mmHg 56%
    08:00 +16°C° 0 mm 5 mps 754 mmHg 51%
    09:00 +17°C° 0 mm 5 mps 754 mmHg 46%
    10:00 +19°C° 0 mm 5 mps 754 mmHg 41%
    11:00 +20°C° 0 mm 5 mps 754 mmHg 38%
    12:00 +21°C° 0 mm 5 mps 755 mmHg 35%
    13:00 +21°C° 0 mm 5 mps 755 mmHg 33%
    14:00 +21°C° 0 mm 5 mps 755 mmHg 34%
    15:00 +21°C° 0 mm 5 mps 755 mmHg 36%
    16:00 +21°C° 0 mm 5 mps 755 mmHg 38%
    17:00 +20°C° 0 mm 4 mps 755 mmHg 42%
    18:00 +19°C° 0 mm 4 mps 756 mmHg 46%
    19:00 +18°C° 0 mm 3 mps 756 mmHg 50%
    20:00 +16°C° 0 mm 3 mps 756 mmHg 59%
    21:00 +14°C° 0 mm 2 mps 756 mmHg 68%
    22:00 +12°C° 0 mm 1 mps 757 mmHg 77%
    23:00 +11°C° 0 mm 1 mps 757 mmHg 81%
    Show more